Hoonah, AK

3:17 PM AKST on February 25, 2017 (GMT -0900)
Hoonah

Weather History for PAOH - August, 2013

Change the Weather History Date:

Wednesday, August 7, 2013

  Actual Average Record
Temperature  
Mean Temperature 60 °F -  
Max Temperature 70 °F 63 °F 78 °F (2003)
Min Temperature 50 °F 49 °F 12 °F (2008)
Degree Days  
Heating Degree Days 5    
Growing Degree Days 10 (Base 50)    
Moisture  
Dew Point 56 °F    
Average Humidity 81    
Maximum Humidity 100    
Minimum Humidity 59    
Precipitation  
Precipitation 0.00 in - - ()
Sea Level Pressure  
Sea Level Pressure 29.97 in    
Wind  
Wind Speed 2 mph (East)    
Max Wind Speed 10 mph    
Max Gust Speed -    
Visibility 10 miles    
Events      
Averages and records for this station are not official NWS values.
T = Trace of Precipitation, MM = Missing Value Source: NWS Daily Summary

Daily Weather History Graph

Daily Weather History Graph

Search for Another Location

Airport or City:

Trip Planner

Search our weather history database for the weather conditions in past years. The results will help you decide how hot, cold, wet, or windy it might be!

Date:

Astronomy

Aug. 07, 2013 Rise Set
Actual Time 5:07 AM AKDT 9:05 PM AKDT
Civil Twilight 4:17 AM AKDT 9:55 PM AKDT
Nautical Twilight 3:00 AM AKDT 11:10 PM AKDT
Astronomical Twilight 1:39 AM AKDT 12:34 AM AKDT
Moon 6:31 AM AKDT (8/7) 8:41 PM AKDT (8/7)
Length of Visible Light 17h 37m
Length of Day
15h 57m
New Moon, 1% of the Moon is Illuminated
Aug 7
New Moon
Aug 14
First Quarter
Aug 20
Full
Aug 28
Last Quarter
Sep 5
New

Hourly Weather History & Observations

Time (AKDT) Temp. Dew Point Humidity Pressure Visibility Wind Dir Wind Speed Gust Speed Precip Events Conditions
12:56 AM 52.0 °F 50.9 °F 96% 30.01 in 10.0 mi Calm Calm - N/A   Clear
1:56 AM 52.9 °F 52.9 °F 100% 30.01 in 10.0 mi Calm Calm - N/A   Clear
2:56 AM 52.9 °F 52.0 °F 97% 30.01 in 10.0 mi Calm Calm - N/A   Clear
3:56 AM 52.0 °F 52.0 °F 100% 29.99 in 10.0 mi Calm Calm - N/A   Clear
4:56 AM 50.9 °F 50.9 °F 100% 30.00 in 10.0 mi Calm Calm - N/A   Scattered Clouds
5:56 AM 50.9 °F 50.9 °F 100% 30.00 in 10.0 mi Calm Calm - N/A   Clear
6:56 AM 54.0 °F 54.0 °F 100% 30.00 in 10.0 mi Calm Calm - N/A   Overcast
7:56 AM 59.0 °F 56.8 °F 93% 29.99 in 10.0 mi Calm Calm - N/A   Overcast
8:56 AM 61.9 °F 56.8 °F 84% 29.99 in 10.0 mi East 8.1 mph - 0.00 in   Overcast
9:56 AM 63.9 °F 56.8 °F 78% 29.99 in 10.0 mi East 6.9 mph - N/A   Mostly Cloudy
10:56 AM 64.9 °F 56.8 °F 75% 29.99 in 10.0 mi East 8.1 mph - N/A   Mostly Cloudy
11:56 AM 66.9 °F 56.8 °F 70% 29.98 in 10.0 mi East 10.4 mph - N/A   Scattered Clouds
12:56 PM 68.9 °F 57.9 °F 68% 29.97 in 10.0 mi East 10.4 mph - N/A   Clear
1:56 PM 70.0 °F 56.8 °F 63% 29.97 in 10.0 mi East 9.2 mph - N/A   Mostly Cloudy
2:56 PM 70.9 °F 55.9 °F 59% 29.96 in 10.0 mi ENE 8.1 mph - N/A   Clear
3:56 PM 70.9 °F 56.8 °F 61% 29.95 in 10.0 mi East 10.4 mph - N/A   Clear
4:56 PM 70.0 °F 55.9 °F 61% 29.94 in 10.0 mi East 6.9 mph - N/A   Clear
5:56 PM 70.9 °F 55.9 °F 59% 29.94 in 10.0 mi East 5.8 mph - N/A   Clear
6:56 PM 68.9 °F 57.9 °F 68% 29.93 in 10.0 mi Calm Calm - N/A   Clear
7:56 PM 66.9 °F 59.0 °F 76% 29.93 in 10.0 mi Calm Calm - N/A   Partly Cloudy
8:56 PM 63.9 °F 59.0 °F 84% 29.94 in 10.0 mi Calm Calm - N/A   Partly Cloudy
9:56 PM 62.6 °F 57.2 °F 82% 29.93 in 10.0 mi Calm Calm - N/A   Scattered Clouds
10:56 PM 61.9 °F 57.9 °F 87% 29.94 in 10.0 mi Calm Calm - N/A   Mostly Cloudy
11:56 PM 61.0 °F 59.0 °F 93% 29.94 in 10.0 mi Calm Calm - N/A   Mostly Cloudy